Volver al catálogo

THORAD DELTA 1 DEB

ActivoLEO
NORAD 8156·DEBRIS·🇺🇸 United States

Lanzado Nov 15, 1974 desde Vandenberg Space Force Base

Loading…

Próximos Pases (próximas 24 horas)

TLE

ActualizadoSource: Space-Track

Época: Sep 14, 2026, 10:40 UTC

1 08156U 74089W   26257.44465366  .00000060  00000-0  55567-3 0  9995
2 08156 101.9413 249.7941 0053152 184.2216 331.8974 12.68307921394614

Sigue THORAD DELTA 1 DEB en tiempo real con AllMySat

Download on the App Store